Weather History for KGLW - September, 2013

Change the Weather History Date:

Monday, September 23, 2013

  Actual Average Record
Temperature  
Mean Temperature 62 °F -  
Max Temperature 76 °F 76 °F 92 °F (2010)
Min Temperature 48 °F 54 °F 37 °F (2012)
Degree Days  
Heating Degree Days 3    
Growing Degree Days 12 (Base 50)    
Moisture  
Dew Point 54 °F    
Average Humidity 78    
Maximum Humidity 100    
Minimum Humidity 49    
Precipitation  
Precipitation 0.00 in - - ()
Sea Level Pressure  
Sea Level Pressure 30.00 in    
Wind  
Wind Speed 2 mph (ENE)    
Max Wind Speed 9 mph    
Max Gust Speed 10 mph    
Visibility 10 miles    
Events      
Averages and records for this station are not official NWS values.
T = Trace of Precipitation, MM = Missing Value Source: NWS Daily Summary

Daily Weather History Graph

Daily Weather History Graph

Search for Another Location

Airport or City:

Trip Planner

Search our weather history database for the weather conditions in past years. The results will help you decide how hot, cold, wet, or windy it might be!

Date:

Astronomy

Sep. 23, 2013 Rise Set
Actual Time 6:32 AM CDT 6:38 PM CDT
Civil Twilight 6:06 AM CDT 7:04 PM CDT
Nautical Twilight 5:36 AM CDT 7:34 PM CDT
Astronomical Twilight 5:05 AM CDT 8:05 PM CDT
Moon 9:17 PM CDT (9/23) 10:44 AM CDT (9/23)
Length of Visible Light 12h 57m
Length of Day
12h 06m
Waning Gibbous, 81% of the Moon is Illuminated
Sep 23
Waning Gibbous
Sep 26
Last Quarter
Oct 4
New
Oct 11
First Quarter
Oct 18
Full

Hourly Weather History & Observations

Time (CDT) Temp. Dew Point Humidity Pressure Visibility Wind Dir Wind Speed Gust Speed Precip Events Conditions
12:15 AM 54.1 °F 50.2 °F 86% 29.97 in 10.0 mi Calm Calm - N/A   Clear
12:35 AM 53.2 °F 49.8 °F 88% 29.97 in 10.0 mi Calm Calm - N/A   Clear
12:55 AM 52.9 °F 50.5 °F 92% 29.98 in 10.0 mi Calm Calm - N/A   Clear
1:15 AM 52.9 °F 52.2 °F 97% 29.97 in 10.0 mi Calm Calm - N/A   Clear
1:35 AM 52.3 °F 52.2 °F 99% 29.98 in 10.0 mi Calm Calm - N/A   Clear
1:55 AM 51.8 °F 51.8 °F 100% 29.98 in 10.0 mi Calm Calm - N/A   Clear
2:15 AM 51.8 °F 51.8 °F 100% 29.98 in 10.0 mi Calm Calm - N/A   Clear
2:35 AM 50.9 °F 50.9 °F 100% 29.97 in 10.0 mi Calm Calm - N/A   Clear
2:55 AM 50.2 °F 50.2 °F 100% 29.97 in 10.0 mi Calm Calm - N/A   Clear
3:15 AM 50.5 °F 50.5 °F 100% 29.98 in 10.0 mi Calm Calm - N/A   Clear
3:35 AM 49.5 °F 49.5 °F 100% 29.98 in 10.0 mi Calm Calm - N/A   Clear
3:55 AM 48.9 °F 48.9 °F 100% 29.98 in 10.0 mi Calm Calm - N/A   Clear
4:15 AM 49.6 °F 49.6 °F 100% 29.99 in 10.0 mi Calm Calm - N/A   Clear
4:35 AM 50.2 °F 50.2 °F 100% 29.99 in 10.0 mi Calm Calm - N/A   Clear
4:55 AM 50.4 °F 50.4 °F 100% 30.00 in 10.0 mi Calm Calm - N/A   Clear
5:15 AM 50.2 °F 50.2 °F 100% 30.00 in 10.0 mi Calm Calm - N/A   Clear
5:35 AM 50.2 °F 50.2 °F 100% 30.01 in 10.0 mi Calm Calm - N/A   Clear
5:55 AM 50.0 °F 50.0 °F 100% 30.01 in 10.0 mi Calm Calm - N/A   Clear
6:15 AM 49.8 °F 49.8 °F 100% 30.01 in 10.0 mi Calm Calm - N/A   Clear
6:35 AM 49.6 °F 49.6 °F 100% 30.02 in 10.0 mi NE 3.5 mph - N/A   Clear
6:55 AM 50.0 °F 50.0 °F 100% 30.02 in 10.0 mi NNE 3.5 mph - N/A   Clear
7:15 AM 50.7 °F 50.7 °F 100% 30.02 in 10.0 mi NE 3.5 mph - N/A   Clear
7:35 AM 52.2 °F 52.2 °F 100% 30.02 in 10.0 mi Calm Calm - N/A   Clear
7:55 AM 54.1 °F 52.3 °F 94% 30.03 in 10.0 mi East 4.6 mph - N/A   Clear
8:15 AM 56.3 °F 52.0 °F 85% 30.04 in 10.0 mi East 6.9 mph - N/A   Clear
8:35 AM 58.1 °F 51.8 °F 80% 30.03 in 10.0 mi East 6.9 mph 10.4 mph N/A   Clear
9:15 AM 61.9 °F 52.2 °F 70% 30.04 in 10.0 mi East 9.2 mph - N/A   Clear
9:35 AM 63.3 °F 51.8 °F 66% 30.04 in 10.0 mi ENE 8.1 mph - N/A   Clear
9:55 AM 64.8 °F 51.6 °F 62% 30.04 in 10.0 mi ENE 6.9 mph - N/A   Clear
10:15 AM 65.8 °F 52.0 °F 61% 30.04 in 10.0 mi ESE 9.2 mph - N/A   Clear
10:35 AM 67.1 °F 52.7 °F 60% 30.04 in 10.0 mi East 8.1 mph - N/A   Clear
10:55 AM 68.4 °F 52.9 °F 58% 30.04 in 10.0 mi East 8.1 mph - N/A   Clear
11:15 AM 69.3 °F 52.7 °F 56% 30.03 in 10.0 mi NE 5.8 mph - N/A   Clear
11:35 AM 70.3 °F 53.8 °F 56% 30.03 in 10.0 mi ENE 3.5 mph - N/A   Clear
11:55 AM 71.1 °F 54.0 °F 55% 30.03 in 10.0 mi SE 5.8 mph - N/A   Clear
12:15 PM 71.8 °F 54.3 °F 54% 30.03 in 10.0 mi Calm Calm - N/A   Clear
12:35 PM 72.9 °F 54.9 °F 53% 30.03 in 10.0 mi Calm Calm - N/A   Clear
12:55 PM 73.2 °F 55.2 °F 53% 30.02 in 10.0 mi Calm Calm - N/A   Clear
1:15 PM 73.9 °F 55.8 °F 53% 30.01 in 10.0 mi North 4.6 mph - N/A   Clear
1:35 PM 74.7 °F 55.8 °F 52% 30.01 in 10.0 mi ENE 5.8 mph - N/A   Clear
1:55 PM 75.2 °F 55.9 °F 51% 30.00 in 10.0 mi Calm Calm - N/A   Clear
2:15 PM 75.6 °F 55.6 °F 50% 30.00 in 10.0 mi ENE 4.6 mph - N/A   Clear
2:35 PM 75.6 °F 56.1 °F 51% 29.99 in 10.0 mi North 4.6 mph - N/A   Clear
2:55 PM 75.9 °F 55.9 °F 50% 29.98 in 10.0 mi East 6.9 mph - N/A   Clear
3:15 PM 76.3 °F 55.9 °F 49% 29.99 in 10.0 mi Calm Calm - N/A   Clear
3:35 PM 76.3 °F 55.8 °F 49% 29.98 in 10.0 mi East 5.8 mph - N/A   Clear
3:55 PM 76.3 °F 56.3 °F 50% 29.98 in 10.0 mi ESE 3.5 mph - N/A   Clear
4:15 PM 76.1 °F 56.3 °F 50% 29.98 in 10.0 mi East 5.8 mph - N/A   Clear
5:15 PM 75.0 °F 57.2 °F 54% 29.98 in 10.0 mi ENE 3.5 mph - N/A   Clear
5:35 PM 74.1 °F 57.4 °F 56% 29.98 in 10.0 mi Calm Calm - N/A   Clear
5:55 PM 73.0 °F 58.1 °F 59% 29.98 in 10.0 mi Calm Calm - N/A   Clear
6:15 PM 71.1 °F 57.9 °F 63% 29.98 in 10.0 mi Calm Calm - N/A   Clear
6:35 PM 68.9 °F 57.4 °F 67% 29.98 in 10.0 mi Calm Calm - N/A   Clear
6:55 PM 67.3 °F 57.0 °F 70% 29.98 in 10.0 mi NE 3.5 mph - N/A   Clear
7:15 PM 65.3 °F 56.7 °F 74% 29.98 in 10.0 mi Calm Calm - N/A   Clear
7:35 PM 64.4 °F 56.7 °F 76% 29.98 in 10.0 mi Calm Calm - N/A   Clear
7:55 PM 63.9 °F 56.5 °F 77% 29.98 in 10.0 mi Calm Calm - N/A   Clear
8:15 PM 64.2 °F 56.8 °F 77% 29.99 in 10.0 mi NNE 3.5 mph - N/A   Clear
8:35 PM 63.5 °F 56.8 °F 79% 29.99 in 10.0 mi Calm Calm - N/A   Clear
8:55 PM 62.8 °F 56.8 °F 81% 30.00 in 10.0 mi Calm Calm - N/A   Clear
9:15 PM 62.1 °F 56.5 °F 82% 30.00 in 10.0 mi Calm Calm - N/A   Clear
9:35 PM 61.2 °F 56.3 °F 84% 30.00 in 10.0 mi Calm Calm - N/A   Clear
9:55 PM 61.0 °F 56.3 °F 85% 30.00 in 10.0 mi Calm Calm - N/A   Clear
10:15 PM 60.4 °F 56.3 °F 86% 30.01 in 10.0 mi Calm Calm - N/A   Clear
10:35 PM 60.4 °F 56.1 °F 86% 30.01 in 10.0 mi Calm Calm - N/A   Clear
10:55 PM 60.1 °F 55.8 °F 86% 30.00 in 10.0 mi Calm Calm - N/A   Clear
11:15 PM 59.5 °F 55.8 °F 87% 30.00 in 10.0 mi Calm Calm - N/A   Clear
11:35 PM 58.8 °F 57.4 °F 95% 30.00 in 10.0 mi Calm Calm - N/A   Clear
11:55 PM 58.1 °F 58.1 °F 100% 30.00 in 10.0 mi Calm Calm - N/A   Clear